Weather History for Scappoose, OR

Change the Weather History Date:

Sunday, November 24, 2013

  Actual Average Record
Temperature  
Mean Temperature 38 °F -  
Max Temperature 51 °F - 57 °F (2002)
Min Temperature 25 °F - 14 °F (2010)
Degree Days  
Heating Degree Days 27    
Month to date heating degree days 473  
Since 1 July heating degree days 1043  
Cooling Degree Days 0    
Month to date cooling degree days 0  
Year to date cooling degree days 396  
Moisture  
Dew Point 26 °F    
Average Humidity 64    
Maximum Humidity 92    
Minimum Humidity 35    
Precipitation  
Precipitation 0.00 in - 1.34 in (1999)
Month to date precipitation 3.05  
Year to date precipitation 25.56  
Sea Level Pressure  
Sea Level Pressure 30.22 in    
Wind  
Wind Speed 2 mph (SW)    
Max Wind Speed 8 mph    
Max Gust Speed 10 mph    
Visibility 10 miles    
Events      
T = Trace of Precipitation, MM = Missing Value Source: NWS Daily Summary

Daily Weather History Graph

Daily Weather History Graph

Search for Another Location

Airport:

Trip Planner

Search our weather history database for the weather conditions in past years. The results will help you decide how hot, cold, wet, or windy it might be!

Date:

Astronomy

Nov. 24, 2013 Rise Set
Actual Time 7:23 AM PST 4:32 PM PST
Civil Twilight 6:50 AM PST 5:05 PM PST
Nautical Twilight 6:13 AM PST 5:42 PM PST
Astronomical Twilight 5:38 AM PST 6:17 PM PST
Moon 11:14 PM PST (11/24) 12:05 PM PST (11/24)
Length of Visible Light 10h 14m
Length of Day
9h 08m
Waning Gibbous, 59% of the Moon is Illuminated
Nov 24
Waning Gibbous
Nov 25
Last Quarter
Dec 2
New
Dec 9
First Quarter
Dec 17
Full

Hourly Weather History & Observations

Time (PST) Temp. Windchill Dew Point Humidity Pressure Visibility Wind Dir Wind Speed Gust Speed Precip Events Conditions
12:53 AM 28.9 °F - 24.1 °F 82% 30.18 in 10.0 mi Calm Calm - N/A   Clear
1:53 AM 28.0 °F - 24.1 °F 85% 30.19 in 10.0 mi Calm Calm - N/A   Clear
2:53 AM 27.0 °F - 23.0 °F 85% 30.19 in 10.0 mi Calm Calm - N/A   Clear
3:53 AM 27.0 °F 23.0 °F 23.0 °F 85% 30.18 in 10.0 mi NNW 3.5 mph - N/A   Clear
4:53 AM 27.0 °F - 24.1 °F 89% 30.17 in 10.0 mi Calm Calm - N/A   Clear
5:53 AM 26.1 °F - 23.0 °F 88% 30.19 in 10.0 mi Calm Calm - N/A   Clear
6:53 AM 25.0 °F - 21.9 °F 88% 30.19 in 10.0 mi Calm Calm - N/A   Clear
7:53 AM 27.0 °F - 23.0 °F 85% 30.20 in 10.0 mi Calm Calm - N/A   Clear
8:53 AM 33.1 °F - 28.0 °F 82% 30.21 in 10.0 mi Calm Calm - N/A   Clear
9:53 AM 39.0 °F - 28.9 °F 67% 30.22 in 10.0 mi Calm Calm - N/A   Clear
10:53 AM 43.0 °F 41.3 °F 27.0 °F 53% 30.22 in 10.0 mi SE 3.5 mph - N/A   Clear
11:53 AM 45.0 °F 43.5 °F 26.1 °F 48% 30.21 in 10.0 mi SSE 3.5 mph - N/A   Clear
12:53 PM 48.0 °F - 27.0 °F 44% 30.20 in 10.0 mi SSE 6.9 mph - N/A   Clear
1:53 PM 50.0 °F - 27.0 °F 41% 30.19 in 10.0 mi SSE 4.6 mph - N/A   Clear
2:53 PM 51.1 °F - 24.1 °F 35% 30.20 in 10.0 mi SE 3.5 mph - N/A   Clear
3:53 PM 48.9 °F - 24.1 °F 38% 30.20 in 10.0 mi South 3.5 mph - N/A   Clear
4:53 PM 37.9 °F 35.5 °F 30.0 °F 73% 30.21 in 10.0 mi WNW 3.5 mph - N/A   Clear
5:53 PM 34.0 °F 31.0 °F 28.0 °F 79% 30.23 in 10.0 mi West 3.5 mph - N/A   Clear
6:53 PM 32.0 °F 27.5 °F 28.0 °F 85% 30.25 in 10.0 mi West 4.6 mph - N/A   Clear
7:53 PM 32.0 °F - 28.0 °F 85% 30.26 in 10.0 mi Calm Calm - N/A   Clear
8:53 PM 30.9 °F 26.2 °F 27.0 °F 85% 30.27 in 10.0 mi West 4.6 mph - N/A   Clear
9:53 PM 28.9 °F 25.2 °F 26.1 °F 89% 30.27 in 10.0 mi West 3.5 mph - N/A   Clear
10:53 PM 28.9 °F - 26.1 °F 89% 30.28 in 10.0 mi Calm Calm - N/A   Clear
11:53 PM 26.1 °F 21.9 °F 24.1 °F 92% 30.29 in 9.0 mi West 3.5 mph - N/A   Clear